CST,Max TemperatureF,Mean TemperatureF,Min TemperatureF,Max Dew PointF,MeanDew PointF,Min DewpointF,Max Humidity, Mean Humidity, Min Humidity, Max Sea Level PressureIn, Mean Sea Level PressureIn, Min Sea Level PressureIn, Max VisibilityMiles, Mean VisibilityMiles, Min VisibilityMiles, Max Wind SpeedMPH, Mean Wind SpeedMPH, Max Gust SpeedMPH,PrecipitationIn, CloudCover, Events, WindDirDegrees
2012-12-1,50,42,33,46,38,32,100,87,76,30.17,29.96,29.80,7,3,0,10,4,,0.00,8,Fog,138
2012-12-2,50,46,41,46,39,37,93,85,76,30.05,29.96,29.80,5,3,0,10,4,,0.00,8,Fog,261
2012-12-3,60,50,41,59,48,37,100,90,71,30.01,29.79,29.63,10,3,0,17,8,34,0.04,7,Fog-Rain,168
2012-12-4,46,35,24,37,25,10,76,58,40,30.34,30.05,29.88,10,10,10,24,11,32,0.00,0,,280
2012-12-5,33,26,19,25,16,12,80,64,44,30.44,30.37,30.23,10,10,10,10,5,,0.00,0,,97
2012-12-6,44,38,33,34,32,30,87,75,61,29.97,29.87,29.81,10,10,10,16,8,23,0.00,5,,212
2012-12-7,37,34,32,30,27,23,81,75,60,30.01,29.97,29.89,10,10,10,9,4,,0.00,4,,334
2012-12-8,37,32,28,27,23,19,86,70,52,30.16,30.05,29.98,10,10,10,7,4,,0.00,3,,23
2012-12-9,33,32,30,32,29,23,100,87,69,30.14,29.94,29.72,10,6,1,10,6,,0.07,7,Snow,54
2012-12-10,33,27,21,30,23,19,93,79,64,29.90,29.82,29.71,10,9,3,12,6,,0.00,5,Snow,308
2012-12-11,28,26,23,23,20,18,86,79,69,30.05,29.91,29.85,10,9,5,16,6,21,0.00,8,Snow,223
2012-12-12,39,26,14,28,22,12,93,77,61,30.16,30.10,30.04,10,9,4,15,5,25,0.00,3,,171
2012-12-13,44,35,24,27,23,21,86,64,39,30.12,30.06,30.00,10,10,10,14,7,17,0.00,0,,203
2012-12-14,42,32,23,32,27,19,100,86,61,30.21,30.13,30.01,10,8,1,9,2,,0.00,3,,65
2012-12-15,42,38,35,39,37,32,93,90,87,30.00,29.71,29.51,7,3,0,16,6,21,0.29,8,Fog-Rain,99
2012-12-16,41,37,33,39,35,32,100,90,81,29.68,29.58,29.50,10,7,0,14,4,17,0.02,8,Fog-Rain,279
2012-12-17,33,30,28,32,24,21,100,77,69,29.73,29.71,29.68,10,10,5,14,8,18,0.00,8,,288
2012-12-18,32,28,23,27,24,19,93,79,69,29.82,29.72,29.67,10,10,10,8,2,,0.00,6,,84
2012-12-19,33,26,19,30,26,18,93,87,75,30.06,29.98,29.83,10,8,5,6,2,,0.00,6,,177
2012-12-20,33,32,32,32,31,28,100,91,81,29.94,29.57,29.37,10,2,0,21,11,29,0.14,8,Snow,5
2012-12-21,33,25,17,28,20,10,81,74,64,30.16,29.95,29.58,10,10,10,21,14,29,0.00,4,,305
2012-12-22,30,18,6,18,11,3,93,76,51,30.16,30.06,29.93,10,10,10,7,3,,0.00,0,,220
2012-12-23,28,19,10,19,15,5,93,76,55,30.05,30.01,29.93,10,10,10,10,3,16,0.00,3,,324
2012-12-24,28,21,14,19,15,12,93,76,55,30.15,30.01,29.96,10,9,1,8,3,,0.00,7,Snow,342
2012-12-25,26,17,8,16,11,5,92,72,51,30.38,30.31,30.15,10,10,10,8,5,,0.00,4,,337
2012-12-26,28,20,12,19,14,9,86,73,64,30.33,30.23,30.17,10,10,10,9,6,10,0.00,4,,357
2012-12-27,26,22,17,19,17,12,86,72,64,30.23,30.19,30.16,10,10,10,10,5,,0.00,8,Snow,354
2012-12-28,28,21,14,23,19,10,93,84,74,30.15,30.04,29.91,10,4,1,9,3,,0.02,8,Snow,14
2012-12-29,30,26,21,23,20,14,86,80,69,30.13,29.98,29.89,10,6,1,13,6,17,0.00,8,Snow,311
2012-12-30,24,18,12,16,11,9,86,72,58,30.24,30.10,29.90,10,8,4,9,6,,0.00,2,Snow,193
2012-12-31,26,16,5,21,11,0,93,74,54,30.17,30.02,29.89,10,9,5,14,7,21,0.00,3,Snow,291